Date String (YYYY-MM-DD hh:mm:ss) UTC,Instrument flags,Ambient pressure (hPa),Sample flow (lpm),Bypass flow (lpm),Sample temperature (°C),Ambient temperature (°C),ASC tube jacket temperature (°C),LED temperature (°C),Box temperature (°C),Sample RH (%),Span deviation,Mass concentration (μg/m³),Mass concentration (μg/m³),Mass concentration (μg/m³)
DateTimeUTC,F1_M11,P_M11,Q1_M11,Q2_M11,T1_M11,T2_M11,T3_M11,T4_M11,T5_M11,U1_M11,ZSPAN_M11,X0_M11,X2_M11,X1_M11
2022-10-18 08:00:00,,0832.0,5.00,0.00,26.9,25.2,00.0,35.9,28.6,13.8,0002.7,0021.60,0008.42,0007.01
2022-10-18 08:01:00,,0832.0,5.00,0.00,26.9,25.2,00.0,35.9,28.6,13.8,0003.4,0021.64,0008.43,0007.01
2022-10-18 08:02:00,,0832.1,5.00,0.00,26.9,25.2,00.0,35.9,28.6,13.8,0003.3,0022.17,0008.41,0007.00
2022-10-18 08:03:00,,0832.0,5.00,0.00,26.9,25.2,00.0,35.9,28.6,13.8,0003.0,0021.76,0008.36,0006.97
2022-10-18 08:04:00,,0832.1,5.00,0.00,26.9,25.2,00.0,35.8,28.6,13.8,0002.5,0021.32,0008.41,0006.97
2022-10-18 08:05:00,,0832.0,5.00,0.00,26.9,25.2,00.0,35.8,28.6,13.8,0002.4,0020.16,0008.40,0006.96
2022-10-18 08:06:00,,0832.1,5.00,0.00,26.9,25.2,00.0,35.8,28.6,13.8,0002.1,0019.30,0008.33,0006.95
2022-10-18 08:07:00,,0832.1,5.00,0.00,26.9,25.2,00.0,35.8,28.6,13.8,0001.9,0019.05,0008.24,0006.93
2022-10-18 08:08:00,,0832.1,5.00,0.00,26.9,25.2,00.0,35.8,28.7,13.8,0001.3,0018.46,0008.19,0006.92
2022-10-18 08:09:00,,0832.0,5.00,0.00,26.9,25.2,00.0,35.8,28.6,13.8,0001.4,0017.38,0008.14,0006.90
2022-10-18 08:10:00,,0832.1,5.00,0.00,26.9,25.2,00.0,35.8,28.6,13.8,0001.7,0016.65,0008.19,0006.86
2022-10-18 08:11:00,,0832.1,5.00,0.00,26.9,25.2,00.0,35.8,28.6,13.8,0001.4,0016.87,0008.13,0006.83
2022-10-18 08:12:00,,0832.0,5.00,0.00,26.9,25.2,00.0,35.8,28.6,13.8,0001.2,0017.58,0008.06,0006.81
2022-10-18 08:13:00,,0832.1,5.00,0.00,26.9,25.2,00.0,35.8,28.6,13.8,0001.8,0017.38,0008.06,0006.79
2022-10-18 08:14:00,,0832.1,5.00,0.00,26.8,25.2,00.0,35.8,28.6,13.8,0001.9,0017.88,0008.03,0006.78
2022-10-18 08:15:00,,0832.0,5.00,0.00,26.8,25.2,00.0,35.8,28.6,13.8,0001.7,0018.61,0007.94,0006.74
2022-10-18 08:16:00,,0832.0,5.00,0.00,26.8,25.2,00.0,35.8,28.6,13.8,0001.9,0019.12,0007.90,0006.72
2022-10-18 08:17:00,,0832.1,5.00,0.00,26.8,25.2,00.0,35.7,28.6,13.8,0002.4,0019.18,0007.87,0006.72
2022-10-18 08:18:00,,0832.0,5.00,0.00,26.8,25.2,00.0,35.7,28.6,13.7,0001.2,0018.42,0007.85,0006.71
2022-10-18 08:19:00,,0832.1,5.00,0.00,26.8,25.2,00.0,35.7,28.6,13.7,0001.5,0018.12,0007.87,0006.68
2022-10-18 08:20:00,,0832.1,5.00,0.00,26.8,25.1,00.0,35.7,28.5,13.7,0002.4,0017.81,0007.86,0006.66
2022-10-18 08:21:00,,0832.1,5.00,0.00,26.8,25.2,00.0,35.7,28.6,13.7,0002.4,0017.38,0007.76,0006.63
2022-10-18 08:22:00,,0832.1,5.00,0.00,26.8,25.1,00.0,35.7,28.5,13.7,0002.6,0017.32,0007.73,0006.60
2022-10-18 08:23:00,,0832.1,5.00,0.00,26.8,25.1,00.0,35.7,28.5,13.7,0002.9,0016.21,0007.69,0006.57
2022-10-18 08:24:00,,0832.1,4.99,0.00,26.8,25.1,00.0,35.7,28.5,13.7,0001.8,0017.02,0007.68,0006.55
2022-10-18 08:25:00,,0832.1,5.01,0.00,26.8,25.1,00.0,35.7,28.5,13.7,0002.1,0017.12,0007.66,0006.52
2022-10-18 08:26:00,,0832.2,5.01,0.00,26.8,25.1,00.0,35.7,28.5,13.7,0002.9,0015.97,0007.56,0006.48
2022-10-18 08:27:00,,0832.2,5.01,0.00,26.8,25.1,00.0,35.7,28.5,13.7,0002.9,0015.54,0007.49,0006.44
2022-10-18 08:28:00,,0832.1,4.99,0.00,26.7,25.1,00.0,35.7,28.5,13.7,0002.5,0015.39,0007.48,0006.40
2022-10-18 08:29:00,,0832.1,4.99,0.00,26.7,25.1,00.0,35.7,28.5,13.7,0002.0,0015.34,0007.50,0006.37
2022-10-18 08:30:00,,0832.1,5.02,0.00,26.7,25.1,00.0,35.7,28.5,13.6,0001.8,0015.21,0007.43,0006.34
2022-10-18 08:31:00,,0832.1,5.01,0.00,26.7,25.1,00.0,35.6,28.5,13.6,0001.8,0015.73,0007.42,0006.31
2022-10-18 08:32:00,,0832.1,4.99,0.00,26.7,25.0,00.0,35.6,28.5,13.7,0001.5,0015.78,0007.45,0006.29
2022-10-18 08:33:00,,0832.1,4.99,0.00,26.7,25.0,00.0,35.6,28.5,13.7,0001.0,0015.54,0007.42,0006.26
2022-10-18 08:34:00,,0832.1,5.00,0.00,26.7,25.1,00.0,35.6,28.5,13.7,0001.0,0016.25,0007.40,0006.24
2022-10-18 08:35:00,,0832.1,5.00,0.00,26.7,25.0,00.0,35.6,28.5,13.7,0001.7,0015.47,0007.32,0006.22
2022-10-18 08:36:00,,0832.1,5.02,0.00,26.7,25.0,00.0,35.6,28.5,13.7,0001.3,0014.65,0007.29,0006.21
2022-10-18 08:37:00,,0832.2,4.99,0.00,26.7,25.0,00.0,35.6,28.5,13.7,0001.2,0015.31,0007.34,0006.24
2022-10-18 08:38:00,,0832.2,4.99,0.00,26.7,25.0,00.0,35.6,28.4,13.7,0000.7,0015.28,0007.36,0006.26
2022-10-18 08:39:00,,0832.2,5.02,0.00,26.7,25.0,00.0,35.6,28.4,13.7,0001.1,0015.77,0007.35,0006.26
2022-10-18 08:40:00,,0832.3,5.00,0.00,26.7,25.0,00.0,35.6,28.4,13.7,0001.4,0015.96,0007.36,0006.25
2022-10-18 08:41:00,,0832.3,4.99,0.00,26.7,25.0,00.0,35.6,28.4,13.7,0001.5,0015.89,0007.33,0006.24
2022-10-18 08:42:00,,0832.3,5.00,0.00,26.7,25.0,00.0,35.6,28.4,13.7,0001.3,0015.81,0007.30,0006.24
2022-10-18 08:43:00,,0832.2,5.01,0.00,26.7,25.0,00.0,35.6,28.4,13.7,0001.0,0015.56,0007.25,0006.25
2022-10-18 08:44:00,,0832.3,5.01,0.00,26.7,25.0,00.0,35.6,28.5,13.7,0001.1,0015.95,0007.25,0006.27
2022-10-18 08:45:00,,0832.2,5.00,0.00,26.6,25.0,00.0,35.6,28.5,13.7,0000.8,0015.51,0007.22,0006.27
2022-10-18 08:46:00,,0832.3,5.00,0.00,26.6,25.0,00.0,35.5,28.5,13.7,0000.3,0014.85,0007.20,0006.26
2022-10-18 08:47:00,,0832.2,5.00,0.00,26.6,25.0,00.0,35.5,28.5,13.7,0000.1,0014.80,0007.21,0006.26
2022-10-18 08:48:00,,0832.3,5.00,0.00,26.6,25.0,00.0,35.5,28.4,13.7,0000.5,0013.98,0007.16,0006.23
2022-10-18 08:49:00,,0832.2,4.99,0.00,26.6,25.0,00.0,35.5,28.4,13.7,0000.6,0014.09,0007.12,0006.20
2022-10-18 08:50:00,,0832.2,5.00,0.00,26.6,25.0,00.0,35.5,28.4,13.7,0000.2,0013.93,0007.12,0006.17
2022-10-18 08:51:00,,0832.3,5.00,0.00,26.6,25.0,00.0,35.5,28.4,13.7,0000.6,0013.56,0007.03,0006.15
2022-10-18 08:52:00,,0832.2,5.00,0.00,26.6,25.0,00.0,35.5,28.4,13.7,0001.4,0015.50,0007.04,0006.14
2022-10-18 08:53:00,,0832.3,5.00,0.00,26.6,25.0,00.0,35.5,28.4,13.7,0001.4,0016.08,0007.06,0006.15
2022-10-18 08:54:00,,0832.3,5.00,0.00,26.6,25.0,00.0,35.5,28.4,13.7,0002.2,0016.36,0007.05,0006.12
2022-10-18 08:55:00,,0832.3,5.00,0.00,26.6,25.0,00.0,35.5,28.4,13.7,0002.5,0016.05,0007.12,0006.11
2022-10-18 08:56:00,,0832.3,4.99,0.00,26.6,25.0,00.0,35.5,28.4,13.7,0003.4,0015.84,0007.10,0006.08
2022-10-18 08:57:00,,0832.3,4.99,0.00,26.6,25.0,00.0,35.5,28.4,13.7,0003.7,0015.77,0007.08,0006.09
2022-10-18 08:58:00,,0832.3,5.00,0.00,26.6,25.0,00.0,35.5,28.3,13.7,0002.6,0015.91,0007.04,0006.06
2022-10-18 08:59:00,,0832.3,5.00,0.00,26.6,24.9,00.0,35.5,28.3,13.7,0000.0,0016.61,0007.04,0006.05
